RH
31 40 51 54 62 61 61 67 70 70 71 70 75 77 76 68 62 55 53 53 51 46 40 39 44 51 52 51 49 56 66 63 46 45 31 29 26 28 26 25 25 27 26 26 26 25 25
30 33 44 52 61 60 59 65 69 70 65 59 59 63 68 58 50 52 53 51 45 39 37 46 52 62 63 57 52 59 69 63 48 58 48 34 32 32 34 33 32 33 33 32 31 31 30
27 31 36 38 46 57 52 57 58 57 59 63 63 64 63 44 47 50 49 44 36 36 48 56 58 65 67 63 55 67 71 69 50 55 50 41 38 37 39 37 37 35 33 32 30 28 27
25 27 35 35 37 48 57 56 58 53 56 58 58 56 42 43 48 46 46 35 32 44 45 56 66 64 63 61 59 61 65 72 58 59 54 52 44 43 38 39 39 38 33 30 28 26 25
24 25 32 37 38 39 44 47 50 50 50 46 44 38 41 47 44 44 37 31 37 30 33 43 58 66 63 63 66 79 72 67 63 54 50 52 48 47 42 38 36 32 32 28 27 28 26
22 23 26 38 40 38 37 36 35 35 35 34 35 39 43 43 41 38 32 31 34 32 30 45 37 41 57 62 55 61 48 49 54 55 52 46 41 41 38 40 45 33 27 26 25 27 22
20 21 22 27 39 40 36 32 31 32 34 35 37 39 39 38 35 31 33 32 32 41 43 48 31 33 52 47 41 43 51 43 39 39 40 46 43 43 38 37 33 29 27 25 21 24 19
18 21 20 21 26 38 37 31 26 26 31 37 37 39 38 33 31 30 22 25 32 35 27 30 32 36 38 28 23 31 39 36 32 28 25 30 36 35 32 30 27 25 22 19 18 20 19
12 15 20 20 20 23 35 40 28 26 29 36 41 38 37 32 30 22 22 26 27 23 24 25 27 25 24 21 21 22 22 25 25 28 23 26 26 25 23 21 19 21 18 20 21 19 17
20 16 12 17 19 19 21 30 37 30 33 29 28 45 38 32 26 22 22 23 24 23 30 26 23 23 23 21 21 20 18 18 21 23 24 24 24 23 22 21 21 20 26 24 22 21 21
26 20 20 13 13 17 17 17 27 31 29 28 25 23 35 30 29 25 22 21 22 22 53 24 25 22 22 22 22 20 21 20 22 22 22 26 24 22 22 26 25 23 27 25 28 27 28
28 26 22 17 20 13 13 16 15 19 28 29 29 33 29 24 27 24 25 22 22 36 35 24 23 23 22 22 21 20 20 20 21 20 22 26 26 26 28 28 28 28 24 25 28 29 39
22 24 24 22 19 16 21 14 12 15 15 15 17 18 24 29 27 24 22 22 39 43 23 28 26 24 23 23 20 21 20 22 21 28 26 25 28 29 28 25 27 24 26 43 46 49 22
19 20 20 24 22 21 19 16 19 18 13 12 13 14 14 13 14 16 21 26 42 24 22 23 25 24 24 24 23 23 24 23 22 23 23 27 31 30 29 26 22 22 25 42 36 26 22
20 20 21 19 21 24 23 20 20 19 17 19 18 13 12 11 12 12 12 29 16 16 19 18 17 28 24 25 24 24 23 22 21 20 18 16 19 26 27 26 23 29 33 19 32 31 27
16 17 17 17 17 18 19 22 23 22 20 19 17 14 15 16 15 12 14 19 19 18 18 18 16 16 21 17 20 15 17 16 16 16 15 14 23 22 30 29 28 26 22 34 37 36 39
15 15 17 17 17 18 18 20 21 23 24 23 21 19 17 15 11 10 26 25 24 20 18 17 16 16 16 16 16 15 15 16 17 17 15 15 17 24 29 34 34 37 42 38 39 37 44
16 18 18 19 21 22 23 23 23 25 26 28 27 27 21 22 19 18 17 16 16 19 22 25 25 20 14 15 16 19 18 17 18 17 20 23 25 34 32 34 33 35 34 31 40 48 44
19 20 21 22 22 23 24 24 25 25 25 27 30 31 28 27 32 27 25 22 19 18 18 17 17 18 19 22 28 34 33 35 36 31 31 30 29 33 35 34 35 35 33 31 30 35 44
16 20 22 22 21 19 19 19 19 19 19 21 24 32 29 29 28 27 26 27 27 27 23 22 22 23 21 20 20 22 21 23 24 24 26 27 26 25 22 25 27 30 29 29 28 40 35
15 17 18 20 21 18 16 14 13 13 13 14 15 21 22 27 25 27 27 27 27 30 32 28 27 26 25 27 27 25 25 27 26 27 26 24 24 22 21 23 24 24 25 31 33 28 37
20 19 18 17 18 17 15 13 13 12 12 14 17 18 18 20 21 22 24 26 28 32 35 35 34 27 26 26 29 31 33 35 34 35 32 30 30 32 30 27 29 32 29 30 30 31 32
28 25 22 18 16 18 17 16 15 15 14 15 17 17 18 20 21 21 22 23 25 30 34 37 38 36 34 29 28 29 31 32 33 35 37 39 38 42 43 39 41 35 23 26 28 28 31
30 30 29 27 23 21 21 20 20 18 18 18 19 20 21 19 22 23 24 25 24 28 34 39 40 40 38 37 36 35 35 36 36 36 36 39 40 44 46 41 40 24 27 29 31 30 31
38 36 36 35 33 32 30 28 27 26 25 24 24 24 26 26 27 25 27 28 30 31 35 38 43 43 43 43 45 45 45 46 45 43 43 42 44 49 51 50 34 27 29 32 34 28 29
45 46 42 42 43 42 42 41 39 36 34 34 33 32 33 36 33 38 38 38 41 44 45 46 46 47 47 49 50 53 46 39 43 49 50 49 51 51 58 61 45 31 32 35 36 34 26
58 53 54 55 49 48 48 49 49 50 49 49 50 50 50 50 45 47 50 52 52 53 54 56 56 55 55 57 59 59 51 46 44 46 58 58 57 58 60 58 44 39 38 40 42 31 36
75 71 66 64 62 59 60 62 63 62 61 61 61 62 63 63 60 57 57 58 61 63 64 64 64 64 65 66 66 64 64 56 56 49 51 53 60 63 64 64 58 43 46 47 42 44 45
88 87 88 87 82 80 80 79 76 76 78 77 74 76 77 77 72 70 70 68 68 67 68 68 68 70 69 70 68 67 66 67 62 56 59 59 52 52 57 53 50 49 49 51 52 53 53